• En España
  • Lista de países
  • Para 7 días
  • Temperatura del agua
  • Mapa Satelital
  • El tiempo en el mapa
  • Informadores
  • user-avatar
    Iniciar sesión

    Tiempo cada hora Tirana

    Hoy, 21 Octubre, Sábado

    Tiempo Temperatura Precipitaciones Viento Presión Humedad
    00:00 +18°C° 0 mm 1 mps 757 mmHg 79%
    01:00 +16°C° 0 mm 1 mps 757 mmHg 79%
    02:00 +16°C° 0 mm 1 mps 757 mmHg 78%
    03:00 +16°C° 0 mm 1 mps 757 mmHg 78%
    04:00 +16°C° 0 mm 1 mps 757 mmHg 77%
    05:00 +16°C° 0 mm 1 mps 757 mmHg 75%
    06:00 +18°C° 0 mm 1 mps 757 mmHg 72%
    07:00 +18°C° 0 mm 1 mps 757 mmHg 69%
    08:00 +20°C° 0 mm 1 mps 757 mmHg 62%
    09:00 +22°C° 0 mm 1 mps 757 mmHg 55%
    10:00 +24°C° 0 mm 1 mps 757 mmHg 48%
    11:00 +25°C° 0 mm 2 mps 756 mmHg 46%
    12:00 +25°C° 0 mm 3 mps 756 mmHg 45%
    13:00 +26°C° 0 mm 3 mps 756 mmHg 44%
    14:00 +25°C° 0 mm 3 mps 756 mmHg 49%
    15:00 +24°C° 0 mm 3 mps 755 mmHg 55%
    16:00 +22°C° 0 mm 3 mps 755 mmHg 60%
    17:00 +20°C° 0 mm 3 mps 755 mmHg 69%
    18:00 +19°C° 0 mm 3 mps 755 mmHg 77%
    19:00 +17°C° 0 mm 2 mps 756 mmHg 86%
    20:00 +17°C° 0 mm 2 mps 756 mmHg 86%
    21:00 +16°C° 0 mm 2 mps 756 mmHg 86%
    22:00 +16°C° 0 mm 2 mps 756 mmHg 86%
    23:00 +16°C° 0 mm 1 mps 756 mmHg 85%

    Mañana, 22 Octubre, Domingo

    Tiempo Temperatura Precipitaciones Viento Presión Humedad
    00:00 +15°C° 0 mm 1 mps 756 mmHg 85%
    01:00 +15°C° 0 mm 1 mps 756 mmHg 84%
    02:00 +15°C° 0 mm 1 mps 755 mmHg 82%
    03:00 +15°C° 0 mm 1 mps 755 mmHg 81%
    04:00 +14°C° 0 mm 1 mps 755 mmHg 79%
    05:00 +15°C° 0 mm 1 mps 755 mmHg 76%
    06:00 +16°C° 0 mm 1 mps 755 mmHg 73%
    07:00 +16°C° 0 mm 1 mps 755 mmHg 70%
    08:00 +19°C° 0 mm 1 mps 755 mmHg 66%
    09:00 +21°C° 0 mm 1 mps 755 mmHg 61%
    10:00 +23°C° 0 mm 2 mps 754 mmHg 57%
    11:00 +23°C° 0 mm 2 mps 754 mmHg 56%
    12:00 +24°C° 0 mm 2 mps 754 mmHg 55%
    13:00 +25°C° 0 mm 2 mps 753 mmHg 54%
    14:00 +24°C° 0 mm 2 mps 753 mmHg 58%
    15:00 +23°C° 0 mm 2 mps 752 mmHg 61%
    16:00 +23°C° 0 mm 1 mps 752 mmHg 65%
    17:00 +20°C° 0 mm 2 mps 752 mmHg 72%
    18:00 +19°C° 0 mm 2 mps 752 mmHg 78%
    19:00 +18°C° 0 mm 2 mps 752 mmHg 85%
    20:00 +18°C° 0 mm 2 mps 752 mmHg 83%
    21:00 +17°C° 0 mm 2 mps 751 mmHg 82%
    22:00 +17°C° 0 mm 2 mps 751 mmHg 80%
    23:00 +17°C° 0,1 mm 3 mps 750 mmHg 79%

    Pasado mañana, 23 Octubre, Lunes

    Tiempo Temperatura Precipitaciones Viento Presión Humedad
    00:00 +17°C° 0,1 mm 3 mps 750 mmHg 77%
    01:00 +17°C° 0,1 mm 4 mps 749 mmHg 75%
    02:00 +17°C° 0,7 mm 4 mps 749 mmHg 73%
    03:00 +16°C° 0,7 mm 5 mps 748 mmHg 71%
    04:00 +16°C° 0,7 mm 6 mps 747 mmHg 68%
    05:00 +16°C° 1 mm 5 mps 747 mmHg 69%
    06:00 +16°C° 1 mm 5 mps 747 mmHg 70%
    07:00 +16°C° 1 mm 5 mps 746 mmHg 70%
    08:00 +17°C° 0,4 mm 5 mps 746 mmHg 70%
    09:00 +17°C° 0,4 mm 5 mps 746 mmHg 70%
    10:00 +19°C° 0,4 mm 6 mps 746 mmHg 69%
    11:00 +19°C° 0,7 mm 5 mps 746 mmHg 67%
    12:00 +19°C° 0,7 mm 5 mps 745 mmHg 65%
    13:00 +19°C° 0,7 mm 5 mps 745 mmHg 63%
    14:00 +19°C° 0,7 mm 4 mps 745 mmHg 65%
    15:00 +18°C° 0,7 mm 3 mps 744 mmHg 67%
    16:00 +17°C° 0,7 mm 2 mps 744 mmHg 69%
    17:00 +16°C° 0,3 mm 2 mps 744 mmHg 72%
    18:00 +16°C° 0,3 mm 2 mps 744 mmHg 76%
    19:00 +15°C° 0,3 mm 2 mps 745 mmHg 79%
    20:00 +14°C° 0,9 mm 2 mps 745 mmHg 79%
    21:00 +14°C° 0,9 mm 2 mps 745 mmHg 79%
    22:00 +14°C° 0,9 mm 2 mps 745 mmHg 79%
    23:00 +12°C° 0,5 mm 3 mps 744 mmHg 79%

    24 Octubre, Martes

    Tiempo Temperatura Precipitaciones Viento Presión Humedad
    00:00 +12°C° 0,5 mm 4 mps 744 mmHg 79%
    01:00 +12°C° 0,5 mm 4 mps 744 mmHg 79%
    02:00 +12°C° 0,2 mm 4 mps 744 mmHg 79%
    03:00 +10°C° 0,2 mm 5 mps 744 mmHg 79%
    04:00 +10°C° 0,2 mm 5 mps 744 mmHg 79%
    05:00 +10°C° 0 mm 5 mps 744 mmHg 78%
    06:00 +12°C° 0 mm 5 mps 744 mmHg 76%
    07:00 +12°C° 0 mm 5 mps 744 mmHg 75%
    08:00 +13°C° 0,1 mm 5 mps 744 mmHg 69%
    09:00 +14°C° 0,1 mm 5 mps 744 mmHg 63%
    10:00 +16°C° 0,1 mm 5 mps 744 mmHg 58%
    11:00 +16°C° 0 mm 6 mps 744 mmHg 55%
    12:00 +17°C° 0 mm 6 mps 744 mmHg 53%
    13:00 +17°C° 0 mm 7 mps 744 mmHg 51%
    14:00 +17°C° 0 mm 7 mps 744 mmHg 52%
    15:00 +17°C° 0 mm 7 mps 744 mmHg 54%
    16:00 +16°C° 0 mm 7 mps 744 mmHg 55%
    17:00 +15°C° 0 mm 6 mps 745 mmHg 59%
    18:00 +14°C° 0 mm 6 mps 745 mmHg 62%
    19:00 +13°C° 0 mm 6 mps 745 mmHg 66%
    20:00 +13°C° 0 mm 6 mps 745 mmHg 68%
    21:00 +12°C° 0 mm 5 mps 746 mmHg 70%
    22:00 +12°C° 0 mm 5 mps 746 mmHg 71%
    23:00 +12°C° 0 mm 5 mps 746 mmHg 72%

    25 Octubre, Miércoles

    Tiempo Temperatura Precipitaciones Viento Presión Humedad
    00:00 +12°C° 0 mm 5 mps 746 mmHg 73%
    01:00 +12°C° 0 mm 5 mps 747 mmHg 74%
    02:00 +12°C° 0 mm 5 mps 747 mmHg 74%
    03:00 +12°C° 0 mm 5 mps 747 mmHg 74%
    04:00 +12°C° 0 mm 5 mps 747 mmHg 74%
    05:00 +12°C° 0 mm 5 mps 748 mmHg 73%
    06:00 +13°C° 0 mm 6 mps 748 mmHg 72%
    07:00 +13°C° 0 mm 6 mps 748 mmHg 71%
    08:00 +14°C° 0 mm 6 mps 749 mmHg 65%
    09:00 +16°C° 0 mm 6 mps 749 mmHg 59%
    10:00 +17°C° 0 mm 7 mps 750 mmHg 53%
    11:00 +18°C° 0 mm 7 mps 750 mmHg 51%
    12:00 +18°C° 0 mm 7 mps 750 mmHg 50%
    13:00 +20°C° 0 mm 7 mps 750 mmHg 48%
    14:00 +18°C° 0 mm 7 mps 750 mmHg 51%
    15:00 +17°C° 0 mm 7 mps 750 mmHg 53%
    16:00 +16°C° 0 mm 7 mps 750 mmHg 56%
    17:00 +16°C° 0 mm 7 mps 751 mmHg 58%
    18:00 +15°C° 0 mm 7 mps 751 mmHg 59%
    19:00 +14°C° 0 mm 7 mps 752 mmHg 61%
    20:00 +12°C° 0 mm 7 mps 752 mmHg 61%
    21:00 +13°C° 0 mm 6 mps 753 mmHg 61%
    22:00 +11°C° 0 mm 6 mps 753 mmHg 62%
    23:00 +11°C° 0 mm 6 mps 753 mmHg 62%

    26 Octubre, Jueves

    Tiempo Temperatura Precipitaciones Viento Presión Humedad
    00:00 +10°C° 0 mm 6 mps 753 mmHg 63%
    01:00 +10°C° 0 mm 6 mps 753 mmHg 63%
    02:00 +10°C° 0 mm 6 mps 753 mmHg 63%
    03:00 +9°C° 0 mm 7 mps 754 mmHg 63%
    04:00 +9°C° 0 mm 7 mps 754 mmHg 63%
    05:00 +9°C° 0 mm 7 mps 754 mmHg 63%
    06:00 +9°C° 0 mm 7 mps 755 mmHg 63%
    07:00 +9°C° 0 mm 7 mps 755 mmHg 63%
    08:00 +11°C° 0 mm 7 mps 755 mmHg 56%
    09:00 +14°C° 0 mm 7 mps 756 mmHg 50%
    10:00 +15°C° 0 mm 7 mps 756 mmHg 44%
    11:00 +16°C° 0 mm 7 mps 756 mmHg 42%
    12:00 +17°C° 0 mm 7 mps 756 mmHg 41%
    13:00 +17°C° 0 mm 7 mps 756 mmHg 40%
    14:00 +17°C° 0 mm 7 mps 757 mmHg 42%
    15:00 +16°C° 0 mm 7 mps 757 mmHg 44%
    16:00 +15°C° 0 mm 7 mps 757 mmHg 47%
    17:00 +14°C° 0 mm 7 mps 758 mmHg 50%
    18:00 +11°C° 0 mm 7 mps 758 mmHg 54%
    19:00 +10°C° 0 mm 7 mps 759 mmHg 58%
    20:00 +10°C° 0 mm 7 mps 759 mmHg 59%
    21:00 +9°C° 0 mm 7 mps 760 mmHg 61%
    22:00 +9°C° 0 mm 7 mps 760 mmHg 62%
    23:00 +8°C° 0 mm 7 mps 760 mmHg 63%
    Mostrar más